Regional Weather Roundup
Issued by NWS

Home | Current Version | Previous Version | Text Only | Print | Product List | Glossary Off
Versions: 1 2 3 4 5 6 7 8 9 10 11 12 13 14 15 16 17 18 19 20 21 22 23 24 25 26 27 28 29 30 31 32 33 34 35 36 37 38 39 40 41 42 43 44 45 46 47 48 49 50

000
ASUS43 KMPX 171101
RWRMN
WEATHER ROUNDUP FOR MINNESOTA
NATIONAL WEATHER SERVICE TWIN CITIES/CHANHASSEN MN
600 AM CDT TUE OCT 17 2017


NOTE: "FAIR" INDICATES FEW OR NO CLOUDS BELOW 12,000 FEET WITH NO
SIGNIFICANT WEATHER AND/OR OBSTRUCTIONS TO VISIBILITY. N/A MEANS
CURRENT SKY AND/OR WEATHER CONDITIONS ARE NOT AVAILABLE.

MNZ060>063-068>070-171200-
   Twin Cities Metro

CITY           SKY/WX    TMP DP  RH WIND       PRES   REMARKS
TWIN CITIES    PTCLDY    49  41  74 SW3       30.00R
ST PAUL        CLEAR     43  41  93 CALM      30.01R
CRYSTAL        CLOUDY    41  36  82 CALM      29.98R
BLAINE         CLOUDY    46  41  81 S3        29.99R
LAKEVILLE      CLEAR     45  39  81 CALM      30.00S
EDEN PRAIRIE   CLOUDY    46  40  79 SW3       29.99R
SOUTH ST PAUL  CLEAR     42  41  99 CALM      29.99S
LAKE ELMO      FAIR      41  37  87 CALM      30.01R
$$
MNZ001>005-007-008-013>017-022>024-027-028-171200-
   Northwest Minnesota

CITY           SKY/WX    TMP DP  RH WIND       PRES   REMARKS
BEMIDJI        CLEAR     32  30  93 CALM      29.93S
HALLOCK        PTCLDY    36  30  80 SE8       29.87S
ROSEAU           N/A     37  32  81 S7        29.88S
WARROAD        CLOUDY    39  36  87 S8        29.88S
CROOKSTON      CLOUDY    34  30  86 S8        29.93R WCI  27
FOSSTON        CLEAR     36  32  87 SE3       29.94S
DETROIT LAKES  CLOUDY    43  41  93 S3        29.96R
MOORHEAD       CLOUDY    39  36  87 S3        29.96R
PARK RAPIDS    PTCLDY    36  32  85 CALM      29.95S
MAHNOMEN       FAIR      40  35  81 S7        29.94R
$$
MNZ006-009>011-018-025>026-171200-
   North Central Minnesota

CITY           SKY/WX    TMP DP  RH WIND       PRES   REMARKS
BAUDETTE       PTCLDY    36  34  92 CALM      29.89S
FLAG ISLAND    CLEAR     45  37  76 S3        29.86S
INTL FALLS     CLEAR     31  28  89 CALM      29.90R
WASKISH        CLOUDY    34  32  93 CALM      29.92R
BIG FORK       CLEAR     32  30  93 CALM      29.93R
LONGVILLE      PTCLDY    34  34 100 CALM      29.95S
GRAND RAPIDS   CLOUDY    39  36  89 CALM      29.97R
CRANE LAKE     CLEAR     28  28 100 CALM      29.93S
ORR            CLOUDY    34  30  86 CALM      29.90S
COOK           CLOUDY    34  32  93 CALM      29.93S
WALKER         FAIR      41  35  81 CALM      29.95R
$$
MNZ012-019>021-037-171200-
   Northeast Minnesota

CITY           SKY/WX    TMP DP  RH WIND       PRES   REMARKS
DULUTH         CLOUDY    46  38  73 NW6       29.95R
ELY            PTCLDY    36  34  93 CALM      29.93R
HIBBING        CLOUDY    36  33  89 SW3       29.94R
EVELETH        CLOUDY    32  32 100 CALM      29.95R
DULUTH HARBOR  CLOUDY    48  43  81 S9        29.96R
TWO HARBORS    CLOUDY    50  39  66 W5        29.92R
GRAND MARAIS     N/A     52  39  61 NW10G22   29.88R
G MARAIS ARPRT CLOUDY    43  34  70 W5        29.91R
$$
MNZ029>031-032-039>041-046>048-054>057-064-171200-
   West Central Minnesota

CITY           SKY/WX    TMP DP  RH WIND       PRES   REMARKS
FERGUS FALLS   CLOUDY    37  37 100 S6        29.99R
WHEATON        CLEAR     36  34  93 E3        30.00R
MORRIS         CLEAR     39  37  93 CALM      29.98R
ALEXANDRIA     CLEAR     41  38  89 SW6       30.00R
ELBOW LAKE     FAIR      37  37  98 S5        29.99R
WADENA         CLOUDY    36  36 100 CALM      29.96S
GLENWOOD       CLEAR     43  41  93 W5        29.99S
APPLETON       CLEAR     39  37  93 CALM      29.99R
BENSON         CLEAR     36  34  93 CALM      30.01R
ORTONVILLE     CLEAR     41  36  81 CALM      29.99R
MADISON        CLEAR     45  39  81 CALM      29.99R
WILLMAR        FAIR      37  36  93 CALM      30.01R
$$
MNZ033>034-036-042>043-049>051-058-059-171200-
   Central Minnesota

CITY           SKY/WX    TMP DP  RH WIND       PRES   REMARKS
ST CLOUD       CLEAR     35  35 100 CALM      29.99R
SAUK CENTRE    FAIR      39  37  94 CALM      29.99R
PAYNESVILLE    CLOUDY    38  38 100 CALM      30.00R
AITKIN         CLOUDY    32  30  93 CALM      29.95R
PINE RIVER     CLOUDY    34  30  86 CALM      30.00R
BRAINERD       CLOUDY    36  35  96 S3        29.97R
STAPLES        PTCLDY    36  36 100 CALM      29.97R
LONG PRAIRIE   FAIR      36  36 100 CALM      29.99R
LITTLE FALLS   CLOUDY    32  30  93 CALM      29.98R
LITCHFIELD     CLOUDY    45  41  87 CALM      30.00R
BUFFALO        CLOUDY    39  35  86 CALM      30.01R
MAPLE LAKE     CLOUDY    39  39  97 CALM      30.00R
HUTCHINSON     PTCLDY    37  37  98 CALM      30.01R
$$
MNZ037-044-045-052-053-171200-
   East Central Minnesota

CITY           SKY/WX    TMP DP  RH WIND       PRES   REMARKS
PRINCETON      CLEAR     36  34  93 CALM      29.99R
MORA           CLEAR     34  32  93 CALM      29.99S
CAMBRIDGE      CLOUDY    39  39 100 CALM      29.99R
RUSH CITY      CLEAR     37  35  95 CALM      29.99R
MOOSE LAKE     CLOUDY    32  32 100 CALM      29.95R
HINCKLEY       FAIR      34  34 100 CALM      29.98R
CLOQUET        CLOUDY    45  36  70 NW6       29.96R
MCGREGOR       PTCLDY    37  36  93 CALM      29.97R
$$
MNZ071>073-080-081-089-090-097-098-171200-
   Southwest Minnesota

CITY           SKY/WX    TMP DP  RH WIND       PRES   REMARKS
MONTEVIDEO     CLEAR     43  36  75 CALM      30.00R
GRANITE FALLS  CLEAR     39  37  90 CALM      30.01R
CANBY          CLEAR     50  39  66 SW7       30.00S
MARSHALL       CLEAR     47  39  74 SW9       30.00S
REDWOOD FALLS  CLEAR     45  37  73 SW5       29.99S
OLIVIA         CLEAR     39  36  87 S3        29.99R
PIPESTONE      CLEAR     39  36  87 CALM      30.02S
WORTHINGTON    CLEAR     48  39  71 SW10      30.04S
JACKSON        PTCLDY    46  37  71 SW8       30.04S
TRACY          CLEAR     47  40  74 SW7       30.01S
SLAYTON        CLEAR     45  39  78 CALM      30.03S
$$
MNZ065>067-074>077-082>085-091>093-171200-
   South Central Minnesota

CITY           SKY/WX    TMP DP  RH WIND       PRES   REMARKS
MANKATO        CLEAR     45  39  79 S7        30.02R
NEW ULM          N/A     43  37  81 SW5       30.00S
ST JAMES       CLEAR     45  37  76 S5        30.02S
FAIRMONT       CLEAR     47  40  76 SW6       30.03S
GLENCOE        CLEAR     42  39  88 CALM      29.99R
FARIBAULT      CLEAR     46  41  81 S6        30.01F
OWATONNA       CLEAR     46  39  76 S5        30.02S
WASECA         CLEAR     41  37  87 S5        30.03F
ALBERT LEA     CLEAR     52  43  71 SW7       30.04S
$$
MNZ078>079-086>088-094>096-171200-
   Southeast Minnesota

CITY           SKY/WX    TMP DP  RH WIND       PRES   REMARKS
ROCHESTER      CLEAR     47  40  76 SW13      30.04R
RED WING       CLEAR     43  37  81 CALM      30.00R
STANTON        CLEAR     47  40  76 S6        29.99S
DODGE CENTER   CLEAR     46  39  76 SW7       30.03S
WINONA         CLEAR     52  41  66 CALM      30.04R
AUSTIN         CLEAR     43  37  81 CALM      30.05R
PRESTON        CLEAR     48  39  70 SW10      30.05R
$$
ABBREVIATIONS USED IN REMARKS
   TC - TEMPERATURES IN CELSIUS
  WCI - WIND CHILL INDEX
   HX - HEAT INDEX
  VSB - VISIBILITY
$$




USA.gov is the U.S. government's official web portal to all federal, state and local government web resources and services.